This is the latest recevied weather packets stored in our database for station/object N4XWC. If no packets are shown the sender has not sent any weather packets the latest 1 day(s).
| Time | Temp. | Humidity | Pressure | Rain* | Wind** | Luminosity | Snow |
|---|---|---|---|---|---|---|---|
| 1778020216 | 22.22° C | 69% | 1011.6 hPa | 0 mm | 0.45 m/s, 208° | - | - |
| 1778019911 | 22.22° C | 69% | 1011.6 hPa | 0 mm | 0.45 m/s, 246° | - | - |
| 1778019734 | 22.22° C | 69% | 1011.6 hPa | 0 mm | 0 m/s | - | - |
| 1778019611 | 22.22° C | 69% | 1011.6 hPa | 0 mm | 0 m/s | - | - |
| 1778019310 | 22.22° C | 68% | 1011.6 hPa | 0 mm | 1.34 m/s, 216° | - | - |
| 1778019135 | 22.22° C | 68% | 1011.6 hPa | 0 mm | 0.89 m/s, 227° | - | - |
| 1778019012 | 22.22° C | 69% | 1011.6 hPa | 0 mm | 1.34 m/s, 227° | - | - |
| 1778018711 | 22.22° C | 68% | 1011.6 hPa | 0 mm | 0 m/s | - | - |
| 1778018533 | 22.22° C | 67% | 1011.6 hPa | 0 mm | 0.45 m/s, 179° | - | - |
| 1778018410 | 22.22° C | 68% | 1011.6 hPa | 0 mm | 0 m/s | - | - |
| 1778018111 | 22.22° C | 68% | 1011.7 hPa | 0 mm | 0 m/s | - | - |
| 1778017934 | 22.22° C | 68% | 1011.7 hPa | 0 mm | 0 m/s | - | - |
| 1778017811 | 22.22° C | 68% | 1011.7 hPa | 0 mm | 0.45 m/s, 232° | - | - |
| 1778017512 | 22.22° C | 67% | 1011.7 hPa | 0 mm | 0.89 m/s, 192° | - | - |
| 1778017334 | 22.22° C | 66% | 1011.8 hPa | 0 mm | 1.34 m/s, 199° | - | - |
| 1778017210 | 22.22° C | 66% | 1011.8 hPa | 0 mm | 0.45 m/s, 244° | - | - |
| 1778016910 | 22.22° C | 66% | 1011.8 hPa | 0 mm | 0.89 m/s, 236° | - | - |
| 1778016734 | 22.22° C | 66% | 1011.8 hPa | 0 mm | 0.45 m/s, 230° | - | - |
| 1778016611 | 22.22° C | 66% | 1011.8 hPa | 0 mm | 0.89 m/s, 205° | - | - |
| 1778016311 | 22.78° C | 67% | 1011.8 hPa | 0 mm | 1.79 m/s, 184° | - | - |
| 1778016134 | 22.22° C | 66% | 1011.8 hPa | 0 mm | 0.89 m/s, 223° | - | - |
| 1778016011 | 22.22° C | 66% | 1011.8 hPa | 0 mm | 0.45 m/s, 200° | - | - |
| 1778015710 | 22.78° C | 66% | 1011.8 hPa | 0 mm | 0.89 m/s, 226° | - | - |
| 1778015535 | 22.78° C | 66% | 1011.9 hPa | 0 mm | 0 m/s | - | - |
| 1778015411 | 22.78° C | 65% | 1011.9 hPa | 0 mm | 0 m/s | - | - |
* Rain latest hour (hover to see other rain measurements)
** Current wind speed in m/s (hover to see current wind gust speed)